METAR LSZS 200250Z AUTO 19003KT 9999 BKN048 04/04 Q1024=
Diese Daten sind ohne Gewähr und dürfen nicht für die Flugvorbereitung verwendet werden.
Information contained in this website shall not be used for flight operation purposes.